Torna al catalogo

COSMOS 1388

AttivoNavigazioneLEO
NORAD 13375·PAYLOAD·🇷🇺 Russia

Lanciato Jul 21, 1982 da Plesetsk Cosmodrome

Loading…

Prossimi Passaggi (prossime 24 ore)

TLE

AggiornatoSource: Space-Track

Epoca: Sep 14, 2026, 11:44 UTC

1 13375U 82073A   26257.48932597 -.00000019  00000-0 -15465-4 0  9995
2 13375  74.0113 257.9289 0051859  23.8495 132.8571 12.57510269 26786

Traccia COSMOS 1388 in tempo reale con AllMySat

Download on the App Store